GFSGBSN_850_spd_093.txt.gz
Wind_Speed
12 12 13 16 16 16 15 16 18 19 17 17 16 16 16 17 18 19 20 20 20 21 22 22 22 21 18 9 25 20 23 23 13 8 14 18 21 20 20 18 21 21 19 25 22 19 21
11 10 13 14 16 17 16 17 18 19 23 19 19 17 16 17 19 20 20 21 21 22 23 22 22 19 11 18 11 12 15 11 13 15 17 18 19 19 20 19 19 20 19 19 25 23 22
13 13 16 18 16 15 17 18 18 20 21 21 24 19 17 18 20 21 21 21 22 23 23 22 20 17 12 29 11 9 11 9 11 17 21 21 20 17 12 17 22 23 20 21 22 24 23
20 15 15 16 15 18 20 20 20 18 21 22 22 27 21 20 20 21 22 21 22 23 23 22 17 8 12 12 12 17 17 21 14 10 18 17 16 22 22 20 18 15 18 20 19 18 17
20 21 21 18 17 17 18 20 22 20 19 22 22 24 27 22 21 21 22 22 22 22 20 17 6 7 12 10 8 8 12 18 17 21 21 15 15 22 19 17 16 16 18 20 21 13 11
20 19 16 24 27 25 23 19 20 21 20 22 21 23 27 26 21 20 21 20 17 15 11 6 7 8 11 6 7 8 8 8 13 14 18 19 15 16 19 17 18 19 20 21 19 15 10
22 17 20 22 25 20 27 27 28 23 19 18 20 22 24 27 21 17 20 18 8 7 9 13 14 21 27 19 12 7 8 8 12 14 18 24 17 22 26 24 23 21 23 18 15 10 6
20 21 20 23 22 20 20 20 21 24 19 21 19 20 24 28 23 13 9 8 4 7 17 22 30 32 33 26 17 17 12 11 17 17 19 18 24 23 23 22 22 23 22 22 20 18 8
22 24 25 24 24 26 21 20 22 21 20 18 16 18 25 26 16 7 7 5 5 11 10 17 21 18 15 18 22 22 20 18 18 19 20 21 19 24 24 22 21 22 22 19 22 18 9
20 23 22 26 28 23 24 26 26 26 22 18 18 18 22 22 9 7 5 3 7 9 6 7 7 5 7 6 9 20 21 24 18 24 20 20 22 18 16 26 22 22 19 19 21 17 14
31 32 30 27 24 25 24 25 23 23 25 20 18 16 16 15 13 7 6 8 9 4 6 6 8 5 6 10 6 8 8 21 25 21 14 21 16 23 20 21 19 20 14 15 20 15 17
26 28 28 29 31 32 31 28 24 22 22 20 18 15 15 12 9 10 10 9 4 7 13 5 7 9 10 12 8 5 5 10 15 25 21 21 14 13 21 18 15 8 13 14 11 15 15
27 30 28 22 28 25 22 22 23 25 19 20 18 15 14 9 9 5 8 7 7 9 1 9 6 7 7 6 10 8 8 14 9 14 21 19 22 13 11 15 14 15 10 6 4 10 13
27 30 26 21 20 28 25 27 27 27 21 16 15 16 13 11 10 10 6 9 13 9 19 7 3 8 11 5 7 8 9 12 10 12 12 19 20 24 16 15 12 19 18 7 11 9 11
25 27 26 27 27 30 31 26 20 18 19 18 16 15 14 13 12 11 14 13 11 14 14 7 11 12 10 6 5 7 12 13 4 6 9 4 14 2 22 22 17 15 16 18 18 15 8
19 17 21 22 22 25 23 22 20 17 14 15 15 14 17 11 13 14 11 23 17 14 8 6 14 4 14 10 7 6 11 3 6 3 8 1 5 2 10 9 16 25 10 12 11 15 12
20 19 21 21 21 19 22 23 18 21 16 11 11 7 6 14 14 15 13 17 17 5 4 7 10 7 9 0 5 4 5 6 1 2 7 6 5 9 5 10 12 13 17 13 12 13 10
21 20 21 22 23 20 21 20 18 16 15 13 11 5 8 15 13 12 13 16 14 10 11 11 6 8 9 1 4 2 4 5 5 7 7 5 4 6 8 5 9 11 14 19 11 14 12
22 20 22 22 20 21 19 17 20 14 16 12 8 15 7 14 8 12 13 15 17 14 14 15 13 7 4 8 4 5 1 3 6 4 5 5 4 6 5 8 5 7 9 7 9 7 14
24 23 23 21 19 19 17 17 21 17 17 17 6 4 14 14 17 15 15 16 15 20 18 19 14 12 12 13 10 7 2 1 1 2 5 6 8 9 8 7 7 3 9 9 6 7 11
24 21 21 23 21 19 21 19 17 19 18 17 10 7 9 5 13 15 14 9 18 16 15 16 18 20 16 15 15 16 15 12 8 6 8 4 10 11 13 14 14 14 13 14 16 14 14
23 24 24 23 21 21 20 20 19 19 19 24 8 8 17 22 11 17 16 18 15 15 16 14 14 14 16 18 16 7 13 12 10 5 5 3 8 10 12 14 15 18 20 20 21 20 21
25 24 23 22 24 24 24 22 22 21 23 22 20 22 18 7 14 12 12 19 19 16 10 21 13 11 12 11 17 14 12 13 10 6 3 4 4 3 10 10 9 10 17 19 20 22 20
26 25 24 24 22 23 22 22 23 23 27 27 19 19 15 13 12 13 17 8 12 16 16 16 16 11 8 1 4 10 14 16 16 15 14 6 7 3 5 3 6 10 8 9 14 16 14
27 25 25 25 25 25 25 26 26 25 25 29 24 20 14 10 19 18 19 13 10 12 13 16 16 12 3 7 4 7 8 10 17 20 18 17 7 4 4 8 12 16 6 7 7 11 14
30 29 28 29 30 31 31 31 30 30 30 30 31 25 20 10 17 20 14 17 11 11 13 18 16 11 7 0 4 5 7 10 8 8 20 17 14 6 6 7 5 7 6 7 11 6 5
30 31 32 33 34 32 33 34 35 36 35 34 30 31 26 18 23 19 15 16 19 14 8 9 16 11 9 4 5 8 10 3 4 9 15 13 9 13 12 7 8 13 12 10 8 3 11
33 34 33 31 31 29 30 31 33 36 40 39 42 33 35 21 27 22 25 17 22 22 11 5 7 7 4 4 5 8 6 6 8 3 13 11 9 6 8 5 10 9 3 4 8 13 16
35 33 31 30 29 28 27 28 31 35 39 42 41 42 34 30 12 22 29 26 21 21 15 5 2 3 2 5 6 4 5 4 11 9 15 7 10 8 9 9 12 5 8 11 12 15 14

GFSGBSN_850_spd_096.txt.gz
Wind_Speed
12 11 9 10 13 15 15 16 18 18 20 22 20 20 20 20 20 21 21 21 21 22 23 22 23 23 22 9 28 21 23 19 19 15 12 16 20 24 20 20 24 22 23 27 27 28 28
11 10 11 13 16 16 15 15 18 20 21 22 23 24 22 22 23 23 22 22 22 22 23 22 22 21 15 16 12 8 13 12 13 13 15 16 19 21 23 21 19 25 26 23 28 25 24
13 14 14 14 15 15 16 19 20 20 22 23 24 25 27 27 25 26 24 24 23 23 23 23 21 18 14 33 12 16 12 11 10 14 21 19 19 21 17 16 27 25 23 22 21 25 23
15 17 17 18 17 18 17 18 19 21 22 23 24 26 27 30 29 26 27 25 23 23 23 23 19 12 13 18 15 18 16 20 19 14 16 18 19 22 26 24 28 19 18 18 17 22 27
16 18 17 15 19 22 23 23 22 22 23 23 24 24 26 29 33 29 27 26 22 21 22 18 12 8 12 11 11 9 10 15 15 19 17 11 13 18 18 16 17 17 19 22 23 22 20
17 19 17 15 18 21 21 21 27 27 26 23 24 22 24 27 32 33 26 24 19 20 16 10 12 11 16 8 4 10 11 11 14 15 20 19 13 15 16 14 18 19 21 19 21 21 21
17 20 20 17 18 22 22 17 19 21 22 25 23 24 24 25 29 30 23 20 10 5 8 18 10 20 24 19 20 18 12 13 12 16 16 24 15 19 22 22 24 21 22 22 22 20 19
17 19 19 20 22 21 23 23 22 21 22 23 22 21 23 24 29 20 8 8 6 8 17 23 35 41 42 31 31 29 16 19 18 17 17 15 22 21 22 23 24 25 25 26 22 23 21
19 21 21 23 22 23 26 27 23 23 25 23 23 21 21 24 26 6 8 12 9 13 9 20 34 35 28 23 36 33 22 23 20 20 19 20 17 24 21 23 24 24 24 20 23 21 24
20 23 27 29 26 25 23 24 23 23 27 27 25 21 20 20 16 10 9 2 7 11 6 10 10 9 18 11 10 24 25 27 20 24 20 21 20 21 22 23 22 24 19 20 16 17 15
22 24 22 21 22 25 27 29 28 28 24 26 23 22 20 12 18 14 6 9 9 5 5 5 11 10 16 15 3 8 16 19 23 21 16 22 20 21 22 23 16 20 20 17 17 18 18
22 22 21 24 23 26 24 26 26 28 21 24 24 19 19 16 18 14 10 11 4 5 8 7 10 11 14 16 13 8 8 15 13 21 23 22 24 21 23 21 22 16 16 13 13 11 16
21 21 22 23 19 17 23 23 21 21 20 20 24 21 19 13 19 11 4 7 6 8 11 12 12 13 15 15 13 12 11 12 10 9 17 22 22 22 20 14 16 16 10 8 9 7 11
19 21 21 22 16 19 21 23 23 23 25 22 22 20 20 17 14 14 11 9 12 13 18 13 5 10 8 10 10 13 13 12 15 15 12 11 16 25 17 19 18 19 17 8 12 10 9
17 17 17 14 15 19 16 19 22 23 22 18 16 20 20 18 14 10 13 12 11 16 14 14 18 10 13 13 3 10 15 13 12 15 7 8 17 18 23 17 20 18 18 18 18 7 2
18 17 14 13 17 17 17 17 19 19 17 9 15 19 24 20 15 14 9 21 18 24 22 10 14 9 13 12 14 10 13 13 6 2 4 5 7 5 4 22 16 16 11 13 10 14 14
19 17 16 16 16 17 16 17 18 15 15 12 15 8 13 16 17 16 11 18 16 29 24 5 12 15 20 7 4 17 7 5 6 5 7 6 6 4 5 7 14 14 15 15 12 12 10
18 18 17 17 18 18 16 16 16 11 11 10 14 4 7 23 11 12 14 19 26 21 18 7 14 16 15 11 7 12 2 5 12 6 6 6 4 5 12 7 2 6 17 18 11 12 8
20 19 19 18 18 17 15 15 13 12 12 8 7 17 10 14 6 12 14 20 21 18 17 8 12 18 18 10 6 10 6 10 10 8 6 7 3 6 6 5 8 8 10 10 16 11 14
21 20 19 19 18 16 16 13 11 11 13 14 7 3 13 13 16 15 11 17 16 18 15 14 14 18 18 14 11 8 3 2 3 5 7 6 5 9 7 8 9 4 9 6 7 5 10
23 20 19 18 19 18 16 16 12 13 11 15 7 6 6 3 10 14 17 8 11 15 10 15 15 20 17 14 15 18 15 15 8 6 3 3 6 12 16 14 13 12 12 11 11 8 7
22 20 20 20 19 21 17 16 16 15 14 17 5 5 14 19 20 11 15 16 17 14 12 14 15 15 19 19 16 18 18 13 9 7 10 2 8 10 14 15 15 17 17 17 17 15 15
22 21 22 21 20 19 21 21 17 16 18 14 14 17 13 9 8 13 12 13 17 15 8 18 12 11 14 15 14 21 8 9 7 9 1 2 4 7 10 12 14 12 15 16 15 16 15
22 22 22 21 21 20 19 20 19 20 23 21 18 14 12 12 13 12 13 13 12 13 9 17 15 10 12 9 9 10 10 10 11 11 7 3 6 4 5 8 7 9 8 4 5 8 10
24 23 22 22 20 20 21 20 19 20 22 26 22 18 10 9 17 17 18 15 13 11 13 13 16 15 9 7 6 7 8 9 16 16 15 12 8 3 3 6 11 15 10 4 5 6 10
26 25 24 24 24 22 21 21 21 21 22 24 25 23 17 9 13 21 12 20 10 11 12 15 15 13 5 2 2 5 6 8 8 7 21 16 11 6 4 6 4 7 8 8 6 4 9
28 28 27 26 25 24 24 26 27 27 26 27 24 23 20 14 26 23 13 12 19 9 7 11 10 10 10 2 3 5 10 3 4 8 17 14 11 13 10 5 8 6 10 6 3 4 9
30 30 28 26 27 27 28 29 29 30 31 31 34 29 24 17 26 21 21 24 20 12 10 9 6 6 2 5 4 6 6 6 6 4 13 12 9 7 7 5 10 10 8 2 2 5 9
31 29 29 30 30 30 29 28 29 29 31 32 37 35 32 21 14 11 26 26 25 22 19 8 4 6 6 5 6 4 4 4 8 3 14 5 8 7 9 5 11 13 11 9 8 7 10

GFSGBSN_850_spd_102.txt.gz
Wind_Speed
10 10 9 9 10 12 13 13 14 16 19 20 20 22 23 25 26 26 25 22 21 21 21 22 23 26 25 11 27 20 18 22 7 7 10 13 15 16 6 6 14 9 15 24 29 30 32
9 10 12 13 14 13 14 15 17 18 19 21 21 23 25 25 26 26 27 26 24 21 20 21 21 24 20 9 14 2 8 7 10 10 11 10 9 13 9 9 10 14 15 22 25 25 15
6 8 9 12 15 14 14 15 17 20 21 21 23 26 27 27 29 29 29 31 26 22 19 20 19 22 20 43 20 26 27 25 16 15 17 14 17 18 6 7 15 15 13 9 6 7 7
6 7 10 12 12 12 15 17 18 19 19 20 21 24 26 29 28 30 30 31 28 20 18 19 19 17 17 27 25 29 24 22 23 19 19 18 14 18 17 12 11 5 4 5 3 1 4
8 9 9 12 14 14 13 15 19 20 22 21 23 25 26 29 29 30 31 32 26 18 17 17 16 12 18 13 11 5 7 15 10 11 25 20 16 14 8 3 3 3 13 10 5 4 4
9 9 11 12 14 15 16 15 16 22 23 25 22 26 27 28 29 29 31 25 15 11 7 8 7 8 16 18 9 3 5 4 9 10 11 15 10 5 2 4 15 8 7 6 5 4 6
9 10 10 13 13 15 15 16 17 18 21 21 24 25 27 28 29 23 25 20 12 5 17 10 13 18 26 18 20 20 12 9 11 10 6 8 4 12 11 11 10 10 8 11 1 5 7
10 12 11 14 17 19 19 19 20 22 22 23 24 26 27 26 26 16 11 11 16 17 17 22 33 41 50 42 25 36 22 8 5 8 4 4 17 11 10 9 10 12 14 20 12 11 13
11 12 14 16 19 18 17 17 18 21 21 24 26 26 26 26 26 14 6 8 15 14 8 20 30 28 31 27 44 51 28 14 8 4 12 15 6 16 13 14 15 15 17 14 15 14 16
12 14 15 16 17 16 17 18 18 20 18 21 20 22 23 26 16 8 14 12 9 11 4 10 9 16 19 15 12 31 42 24 8 19 7 13 16 17 13 18 16 18 17 17 15 10 8
14 15 17 18 16 16 17 18 18 17 16 18 17 19 20 18 20 18 16 21 10 3 5 10 7 7 13 18 2 8 23 24 18 9 10 11 8 19 22 19 17 13 17 15 16 9 4
14 14 14 15 16 18 17 15 14 16 17 19 21 22 21 20 23 22 15 17 5 2 9 8 4 5 5 12 4 1 9 15 12 3 9 13 11 4 7 8 15 12 14 15 13 5 10
11 13 13 14 16 15 15 13 15 18 19 20 20 21 21 21 24 20 14 17 3 8 7 12 9 11 15 7 8 5 4 8 6 6 12 8 22 17 9 7 7 6 3 4 3 2 5
13 14 14 13 16 15 11 13 15 16 19 20 21 22 23 25 19 16 12 4 9 13 22 17 14 17 6 8 6 5 5 7 7 4 2 7 7 13 7 18 6 8 9 5 8 5 4
14 15 13 14 16 15 13 15 14 16 17 18 20 23 28 22 7 10 9 5 3 6 5 13 17 5 14 21 11 7 2 5 9 16 7 5 6 3 5 12 15 9 7 8 5 3 3
14 16 15 15 17 15 15 15 14 15 15 16 19 23 22 10 6 12 5 11 8 9 13 15 12 9 14 17 10 3 7 5 7 8 13 5 8 5 3 4 12 10 5 4 3 8 6
15 15 16 16 12 14 14 13 13 13 12 12 15 10 8 9 9 4 5 6 8 10 14 8 17 18 15 13 15 6 9 5 5 8 13 7 4 4 1 2 4 5 10 1 4 4 10
16 14 16 14 13 14 12 12 11 10 10 9 6 3 3 9 2 4 3 4 7 12 19 13 9 13 3 6 7 4 4 3 6 8 9 8 5 4 5 4 4 4 4 6 4 2 3
16 15 15 16 15 13 13 11 9 9 7 6 4 6 11 6 1 3 6 7 7 13 14 6 9 16 8 5 5 8 3 9 7 4 6 8 5 4 4 3 7 6 6 5 4 4 5
19 17 17 17 15 13 13 11 9 8 6 6 4 3 3 6 3 4 4 5 6 10 12 8 10 13 1 2 2 6 5 3 11 5 14 6 5 3 2 2 1 2 6 8 4 3 1
18 16 20 19 15 13 13 12 10 9 7 7 3 3 4 3 3 2 4 5 11 9 6 11 7 10 10 4 4 3 6 6 11 10 4 5 3 5 6 2 3 3 3 4 3 1 1
19 18 20 18 15 14 14 13 13 10 10 12 3 3 3 6 10 6 5 4 10 14 3 10 7 9 5 4 3 4 6 5 4 5 6 3 3 2 2 6 6 2 4 3 4 4 10
22 21 22 18 16 14 15 15 14 12 15 10 9 11 8 4 2 2 3 4 15 12 12 15 9 5 5 2 4 11 12 11 9 3 3 6 4 4 1 8 4 3 2 5 5 9 13
17 21 23 20 17 16 15 14 14 14 18 17 12 5 4 3 2 2 9 14 11 12 8 16 15 4 8 16 15 12 9 9 7 6 4 2 3 3 3 5 0 3 10 2 12 9 11
19 23 22 21 18 16 16 16 14 15 18 21 18 16 4 3 3 5 9 9 15 15 5 6 15 18 14 3 3 5 3 3 6 8 7 6 2 0 1 1 6 4 5 4 3 5 5
21 21 23 24 20 18 17 16 15 15 15 18 19 18 11 3 5 7 4 8 4 5 6 5 23 15 4 2 2 1 3 3 3 5 12 6 4 3 2 1 3 2 5 10 4 3 2
22 23 21 24 24 19 17 16 17 15 16 18 18 16 17 6 15 19 5 3 5 4 3 7 19 9 8 2 1 2 3 1 4 4 1 4 1 7 2 1 6 6 6 11 3 4 1
17 23 22 24 23 21 19 18 17 17 16 17 18 16 17 7 20 22 18 14 14 9 1 10 9 7 4 2 2 3 2 2 3 2 2 6 6 3 3 2 6 4 2 1 3 2 7
19 23 23 25 23 21 20 19 18 18 18 17 19 17 19 22 12 12 14 17 17 17 11 5 6 4 2 3 3 3 3 2 3 3 1 4 5 5 6 6 4 9 6 5 11 3 16

GFSGBSN_850_spd_105.txt.gz
Wind_Speed
10 11 7 8 9 10 10 11 13 15 17 19 21 22 23 26 28 27 26 25 23 23 23 23 24 25 25 11 29 20 20 26 18 10 11 13 15 16 6 5 10 7 5 21 22 26 27
6 6 8 9 9 9 9 11 14 15 18 19 21 21 24 26 28 31 30 29 26 25 22 22 22 22 19 8 17 8 11 12 7 7 13 13 9 15 6 9 9 5 13 21 23 26 26
3 4 7 9 9 8 10 12 14 17 19 20 22 23 24 27 30 32 32 32 31 28 24 22 20 21 20 43 25 26 26 27 23 24 19 18 15 16 2 5 14 9 6 8 7 10 9
6 4 4 7 10 11 11 12 14 17 19 22 24 25 27 30 32 34 35 34 31 27 23 21 19 17 15 23 26 26 22 29 26 24 22 19 16 16 11 12 6 4 2 3 4 8 8
7 8 9 11 11 11 12 12 13 17 20 22 23 24 27 30 33 34 33 30 26 22 20 16 14 12 16 11 10 9 14 11 16 18 18 22 16 12 8 3 3 4 7 5 5 5 4
6 5 4 7 8 11 12 13 14 16 18 21 23 25 27 30 32 35 31 28 17 13 13 9 8 8 14 6 7 11 12 5 5 10 9 14 11 5 2 5 14 9 6 5 8 5 6
5 7 7 8 10 12 14 14 14 17 18 20 21 24 25 28 30 29 27 26 13 5 22 13 23 22 35 25 27 21 11 14 11 7 6 5 4 15 17 12 11 9 7 8 0 5 4
8 7 8 9 11 13 14 14 15 17 18 20 20 22 24 26 26 23 14 12 13 16 19 32 35 42 49 43 29 49 32 12 5 7 4 3 16 7 9 10 8 8 14 14 5 5 5
8 9 10 11 12 13 13 15 15 15 17 18 19 19 22 24 19 15 21 6 18 22 10 22 31 27 24 18 29 49 25 13 7 6 8 12 8 13 15 10 13 11 16 5 12 4 7
9 12 12 12 13 13 13 14 14 14 15 15 16 17 18 21 10 18 16 17 17 15 4 9 6 12 11 11 12 31 35 25 8 21 12 12 15 15 7 16 10 16 8 11 9 4 6
12 13 13 14 13 12 13 13 12 12 13 15 16 18 20 18 18 19 19 22 15 4 5 6 5 6 6 11 14 6 19 24 27 9 9 16 8 15 21 22 13 10 9 10 9 6 3
12 12 12 12 11 11 12 13 12 12 14 15 17 19 20 18 18 15 10 18 10 2 9 7 5 13 9 12 17 5 6 13 12 6 6 17 1 6 7 9 17 4 4 2 1 3 8
9 9 10 10 9 9 10 9 10 12 14 17 17 18 20 19 20 19 14 10 1 6 11 7 10 22 22 15 12 7 4 7 6 6 10 7 11 2 1 3 3 5 6 2 2 3 7
7 10 10 8 10 12 10 10 11 13 15 16 18 19 19 19 10 5 4 1 4 7 10 20 23 27 8 17 11 15 4 4 5 4 3 8 8 12 5 16 5 7 8 5 7 4 3
9 9 12 9 11 13 11 11 12 13 14 15 18 18 16 13 4 4 3 1 4 5 3 12 20 10 5 15 9 10 6 9 4 7 4 5 5 4 5 15 16 12 6 15 6 1 1
11 9 12 11 12 11 10 10 11 11 11 12 16 19 8 9 4 7 2 6 5 7 14 17 16 8 14 15 12 15 7 11 8 6 5 4 4 5 3 5 9 13 6 5 3 10 14
13 10 13 11 13 8 9 10 8 8 8 10 12 8 5 12 4 3 2 5 5 12 17 8 13 17 15 9 7 11 4 5 14 10 5 7 1 4 2 4 7 3 6 5 6 5 9
13 13 11 11 12 10 11 8 8 7 7 7 3 2 4 5 3 3 3 4 4 10 14 13 6 8 9 14 6 7 5 4 4 7 2 4 1 3 6 4 1 2 8 13 5 5 3
16 13 14 12 11 12 11 9 7 5 5 4 0 5 4 2 2 2 6 5 13 13 6 5 5 6 17 13 3 7 9 9 5 1 4 3 3 3 5 2 4 4 5 2 4 3 5
18 17 14 14 16 13 12 11 9 6 4 4 1 2 2 2 2 2 3 5 5 13 13 7 7 7 8 4 2 4 5 7 15 4 1 5 4 4 2 9 1 4 4 5 5 4 1
21 21 19 19 16 16 13 12 10 8 7 6 4 2 2 2 3 3 3 4 9 9 6 8 5 11 4 4 4 4 4 6 7 7 1 3 5 7 17 11 4 3 8 5 6 4 4
22 19 17 17 17 17 15 14 12 10 10 11 5 3 2 5 8 3 3 3 7 14 4 5 8 14 8 3 3 3 2 1 2 6 1 3 4 4 15 9 4 4 5 3 2 2 3
19 20 22 21 19 18 16 14 14 12 14 11 11 10 6 5 2 1 3 2 8 13 9 8 13 9 7 4 9 18 18 10 5 2 5 3 4 3 6 10 10 1 2 4 6 6 5
20 24 23 23 22 19 17 15 14 15 17 17 11 8 5 2 3 3 5 10 8 11 10 15 14 3 8 25 22 17 14 12 8 10 8 2 2 3 3 4 4 2 6 6 9 4 7
22 23 20 22 22 20 18 17 15 16 17 19 19 14 4 2 7 6 8 8 11 14 5 5 10 19 17 9 4 5 4 2 4 7 5 4 3 1 1 1 6 1 2 3 3 3 4
23 20 20 25 22 22 21 19 15 16 15 19 19 18 10 4 6 11 4 6 4 3 5 5 17 13 8 2 3 2 3 3 3 5 4 4 1 2 2 1 3 4 2 2 1 4 3
23 20 22 22 22 25 22 18 16 17 15 17 16 18 16 6 16 16 6 4 3 2 3 6 14 9 12 3 1 1 3 2 2 3 2 1 1 6 2 2 6 7 7 11 4 5 7
24 19 20 23 23 23 25 19 16 15 16 17 19 17 18 7 20 19 16 9 8 7 2 7 9 5 4 4 2 3 2 3 2 2 6 3 3 3 3 2 7 4 5 1 3 4 14
29 24 18 20 23 23 24 21 18 16 18 17 19 17 17 18 12 12 14 15 18 21 13 5 4 3 2 2 3 3 3 2 1 3 2 2 5 2 7 6 5 4 2 0 5 7 9

GFSGBSN_850_spd_108.txt.gz
Wind_Speed
10 11 9 7 8 8 8 9 10 12 14 17 19 20 23 24 26 27 26 26 25 24 24 25 27 27 25 12 24 19 22 24 25 13 11 11 10 11 5 5 6 7 3 13 23 22 17
9 6 5 5 6 6 7 9 12 14 15 18 20 22 24 26 27 30 30 28 27 26 25 24 25 26 17 6 15 10 11 11 11 6 9 10 7 11 5 6 7 5 11 19 23 21 17
4 2 4 5 5 7 9 10 11 13 16 19 22 21 22 25 28 29 31 30 28 27 27 22 21 21 18 38 27 28 29 29 18 18 18 11 14 13 0 4 12 9 8 7 7 8 7
6 6 4 4 7 9 8 9 10 12 15 17 19 22 24 27 30 31 32 31 28 26 25 22 18 17 14 23 22 12 7 11 21 29 31 25 19 18 11 9 5 3 4 3 4 10 6
8 7 8 9 6 6 8 9 10 13 16 18 21 22 25 27 29 31 32 31 26 21 18 20 15 9 14 8 7 6 11 15 12 8 17 16 13 12 7 4 3 4 5 5 4 7 4
7 6 4 5 7 9 9 12 12 14 15 17 19 21 25 27 28 30 31 29 17 13 14 12 6 8 9 6 10 8 15 8 9 8 5 10 8 4 2 5 12 5 6 4 6 3 6
6 6 7 7 8 10 10 10 12 14 16 17 19 21 23 23 23 26 32 26 17 6 27 16 26 27 43 35 43 47 25 17 14 5 5 6 4 19 16 10 10 9 5 8 2 4 2
10 8 8 7 7 9 10 11 13 14 15 17 18 20 21 20 20 20 23 15 16 15 18 31 35 43 43 38 23 41 32 15 6 7 4 3 16 6 9 9 10 9 14 19 4 5 6
9 7 7 7 8 10 11 12 13 13 14 15 16 18 21 22 18 14 17 17 13 17 8 14 18 17 16 8 13 16 16 12 9 13 13 13 8 15 11 7 12 16 19 9 8 1 7
7 11 10 9 10 10 10 10 11 12 13 14 15 17 21 22 8 19 11 15 11 9 4 7 5 5 10 6 8 22 21 18 9 22 10 11 17 14 4 12 10 16 10 8 9 5 6
11 12 10 10 10 9 10 9 10 10 12 13 12 15 19 19 16 14 11 10 9 2 4 3 5 6 25 6 30 6 8 18 23 8 9 22 7 11 16 18 11 8 10 12 7 6 2
12 11 9 9 9 7 7 8 8 9 11 11 14 16 17 16 14 11 11 6 2 4 7 8 8 23 23 35 20 14 16 15 7 8 7 15 3 9 13 8 18 7 3 3 3 4 5
10 7 7 8 7 7 7 7 7 9 11 13 15 16 16 15 13 10 6 2 4 2 10 9 13 20 27 16 13 8 9 5 5 3 7 13 10 3 5 5 5 7 7 2 1 3 6
12 8 8 7 5 7 8 6 7 10 11 13 15 14 12 7 9 1 4 4 4 4 4 7 11 28 13 16 12 15 10 5 5 3 1 6 5 16 7 7 7 11 14 5 7 4 4
12 11 10 9 8 9 7 6 7 8 10 12 14 12 4 8 1 5 3 4 4 3 4 6 17 10 13 17 12 10 7 6 2 8 3 4 5 4 11 9 9 5 9 8 3 1 1
13 13 9 9 8 7 5 4 6 7 7 9 13 11 9 3 3 5 4 3 4 5 9 7 7 6 16 23 13 8 5 11 13 12 5 4 3 3 4 5 7 9 7 3 1 6 7
13 12 13 11 9 7 4 4 4 5 5 7 9 4 5 11 5 1 2 4 5 12 13 4 7 13 18 13 8 7 10 6 18 12 13 3 3 5 1 4 8 4 5 4 5 5 5
14 11 12 10 8 8 6 5 4 4 4 5 3 2 8 3 3 2 2 3 7 8 11 8 8 11 8 8 5 4 7 7 22 15 8 5 4 4 7 5 2 1 4 10 5 7 2
18 15 15 14 10 8 9 7 5 2 3 2 1 3 2 4 1 2 4 4 5 4 4 3 5 6 10 5 4 9 5 10 13 12 4 5 3 2 1 3 5 3 2 2 5 3 6
23 16 13 11 12 12 10 9 6 4 5 2 1 2 2 2 1 2 3 4 4 9 5 7 8 10 9 4 3 5 9 4 12 2 13 4 3 6 3 2 8 6 6 6 4 5 7
25 15 16 18 16 14 13 11 8 6 7 5 3 2 1 2 2 3 3 3 4 6 4 8 4 10 10 4 5 5 5 7 11 6 5 1 5 3 7 8 5 5 8 12 4 1 6
25 22 21 20 18 18 16 13 11 9 9 10 4 3 2 4 6 3 3 3 4 5 3 5 6 15 11 4 4 13 11 5 5 7 6 2 2 4 6 9 5 1 3 12 5 3 4
23 21 24 19 18 17 17 15 15 12 13 7 11 6 2 3 2 2 3 1 4 9 8 10 11 12 7 6 15 27 25 21 12 7 4 4 1 2 2 6 9 2 6 9 4 2 4
27 18 22 18 22 20 18 17 16 14 15 16 10 8 5 3 4 4 3 6 9 8 9 20 18 4 9 29 27 19 19 18 14 12 9 5 3 1 2 4 6 3 4 5 4 3 4
27 19 17 21 22 22 21 19 17 15 16 17 17 14 5 2 6 7 10 7 12 15 6 10 16 18 21 13 4 6 4 4 4 7 6 8 2 2 1 2 4 1 3 4 4 4 3
28 23 20 20 19 21 22 19 18 16 17 17 18 19 10 1 6 15 4 5 3 4 5 6 20 16 12 1 2 2 2 3 3 5 5 3 0 2 2 0 1 2 4 7 1 1 1
29 24 23 21 23 24 22 21 20 18 18 17 18 19 17 7 16 14 5 4 5 3 3 7 11 9 11 4 2 1 2 3 2 2 1 1 2 3 2 2 5 4 8 11 1 3 6
31 25 21 19 21 19 21 23 19 17 18 18 18 18 22 8 22 16 10 10 7 4 2 7 9 3 5 5 3 3 3 4 4 3 2 1 0 2 1 2 6 2 5 2 3 1 12
30 24 23 18 20 23 20 24 21 17 17 18 18 16 18 17 13 12 14 21 26 29 20 6 6 2 3 2 2 2 2 2 6 2 2 1 3 3 5 4 4 4 5 8 12 1 11

GFSGBSN_850_spd_111.txt.gz
Wind_Speed
9 10 9 8 6 5 5 6 8 10 12 14 17 19 20 22 23 23 24 24 24 23 23 23 25 24 21 12 17 14 18 17 20 18 12 12 14 11 6 5 7 8 5 9 16 20 15
10 8 5 4 3 3 5 7 8 10 12 16 18 20 21 24 24 26 26 26 25 25 26 24 23 23 16 5 12 11 12 14 10 9 8 13 6 9 5 6 11 6 7 15 14 17 12
7 3 3 3 2 4 5 6 7 9 13 15 18 19 22 23 24 27 28 27 27 27 25 24 22 20 17 25 18 19 18 17 17 21 19 13 10 6 2 4 8 6 12 11 11 9 9
8 6 5 4 4 4 3 4 6 10 13 15 17 20 22 23 25 28 28 27 28 27 24 22 19 17 11 18 15 6 4 6 8 9 19 26 25 16 9 9 5 5 5 6 1 11 8
8 8 8 8 5 3 6 8 9 10 11 14 18 20 21 23 26 29 30 30 28 24 19 19 14 12 11 7 7 8 9 16 17 12 9 6 11 10 7 8 9 6 14 10 5 8 5
7 7 6 4 4 4 5 7 8 8 11 14 18 19 20 22 25 30 30 30 22 17 11 13 10 11 2 14 31 32 22 27 19 16 3 8 6 6 6 10 16 10 11 9 15 6 10
8 6 6 7 5 5 5 5 8 8 12 16 17 18 19 21 25 27 32 29 16 4 25 10 24 18 33 33 34 18 24 18 18 13 6 6 7 19 18 20 19 13 11 14 6 2 6
11 9 7 8 6 4 3 5 8 10 13 14 15 17 18 21 20 22 26 17 11 11 15 23 23 19 20 20 9 21 17 6 6 13 10 5 19 12 11 15 15 17 20 25 14 12 11
10 7 6 6 5 4 5 6 7 9 11 12 15 17 18 20 15 21 20 16 9 10 6 14 12 9 18 19 7 12 19 11 9 17 16 18 28 17 11 10 17 20 23 18 17 8 10
9 11 11 8 6 6 5 6 7 8 9 11 13 16 19 18 8 18 13 9 7 7 4 6 7 5 22 30 6 27 19 7 4 7 13 17 27 14 9 19 15 19 11 17 15 9 11
11 12 9 9 8 4 3 4 5 6 7 10 12 15 17 16 10 12 11 7 5 4 5 12 6 9 30 26 21 13 20 13 19 16 6 12 5 18 23 19 15 9 10 15 16 15 10
11 11 8 7 5 4 3 3 4 5 7 8 12 13 13 12 10 9 8 2 2 2 5 7 10 18 17 22 20 14 15 21 17 11 14 24 19 10 19 13 20 6 6 5 3 6 8
11 7 7 7 4 4 4 4 4 5 6 8 10 11 11 10 8 6 4 4 2 2 6 8 10 13 20 8 11 15 21 15 9 6 11 11 22 16 9 12 13 17 12 6 7 6 9
13 11 7 7 4 4 4 4 4 4 6 7 9 8 7 8 6 5 3 4 4 0 5 7 8 22 6 10 15 17 14 15 16 17 12 9 8 21 16 18 12 19 17 8 9 7 7
12 8 10 9 5 8 5 3 3 3 5 6 7 4 6 6 6 6 2 4 3 3 4 9 16 8 8 8 11 10 9 6 7 11 6 4 6 4 10 12 16 9 17 16 2 1 3
12 8 12 10 8 6 3 4 2 2 3 4 7 9 9 4 6 3 3 1 2 4 6 4 5 3 12 13 13 12 6 7 11 8 11 3 6 6 0 15 12 10 17 9 6 9 7
15 9 13 10 8 7 4 4 2 1 2 3 5 5 6 9 4 4 2 2 4 10 9 3 5 8 9 12 8 5 5 11 9 15 11 7 3 2 5 7 19 12 11 7 9 5 10
16 14 12 12 10 9 7 6 4 2 1 2 4 2 7 5 4 3 1 3 4 7 5 7 6 9 10 14 7 5 5 6 21 13 14 4 4 6 12 4 1 11 21 11 11 13 7
17 14 10 7 10 9 9 8 6 4 3 3 3 3 4 3 2 1 3 3 5 2 4 3 3 2 10 8 7 8 8 14 13 14 9 7 3 5 5 3 5 6 4 5 15 0 14
19 19 15 7 6 12 9 9 8 6 5 4 3 2 1 6 3 2 1 3 3 7 5 3 4 5 11 9 8 10 11 9 27 19 14 1 4 8 2 3 1 1 3 6 5 12 16
23 22 20 12 8 13 11 11 10 8 7 7 3 1 2 1 2 1 1 3 4 4 3 3 2 8 10 6 13 4 13 19 13 9 12 1 2 6 14 7 1 3 2 3 2 3 13
25 28 25 14 10 12 17 14 12 11 10 9 5 4 3 2 3 2 2 2 2 3 3 4 4 13 13 9 12 19 17 16 10 9 12 8 3 3 3 13 6 1 0 5 3 2 4
22 21 16 14 13 16 19 17 16 15 14 7 9 6 3 2 2 2 3 2 1 7 6 10 10 15 11 11 18 32 30 29 19 16 9 6 7 9 5 6 7 5 2 1 2 4 3
24 23 19 15 15 16 17 17 19 18 16 14 11 9 5 3 4 4 3 2 8 8 10 19 19 7 8 31 34 25 15 19 15 13 12 7 9 4 6 10 3 1 5 6 2 11 7
25 24 22 17 16 19 21 17 19 18 17 15 14 12 7 2 6 6 10 8 9 12 11 13 16 8 23 15 5 8 4 2 3 1 6 12 3 4 3 6 4 2 4 2 1 2 1
27 25 28 19 16 17 22 21 21 20 18 17 17 17 8 3 5 9 6 6 4 3 4 4 14 16 7 1 2 3 3 4 4 9 6 5 5 3 4 4 2 1 6 6 3 1 2
28 25 24 21 17 15 17 22 22 21 19 17 16 17 16 5 12 10 4 3 2 2 3 5 9 8 8 3 3 2 1 5 4 6 6 3 1 6 6 4 6 5 12 9 2 3 8
26 25 24 23 19 17 22 22 23 21 19 19 20 15 21 7 19 11 8 13 10 8 4 5 8 1 3 4 3 3 3 3 4 7 6 3 3 1 2 3 6 18 10 4 4 3 6
28 27 27 23 20 18 19 23 22 19 19 18 18 15 16 16 10 10 12 16 23 25 15 8 5 5 4 2 1 3 3 2 5 4 2 3 1 3 4 3 5 12 9 10 6 3 2

GFSGBSN_850_spd_114.txt.gz
Wind_Speed
12 10 10 9 7 6 5 4 5 6 7 8 10 12 14 15 16 18 18 19 20 21 20 21 21 20 17 7 7 11 12 11 9 9 7 11 14 14 16 12 21 20 19 22 20 23 24
13 12 11 9 7 5 4 4 5 6 8 10 12 14 15 16 18 20 21 21 22 22 21 20 20 20 11 8 12 10 13 15 16 14 10 11 14 17 17 16 17 15 16 19 21 22 24
13 12 10 9 8 6 5 4 3 4 7 10 12 13 15 17 18 20 22 23 23 23 22 21 20 16 12 8 10 13 11 11 9 11 15 15 12 12 6 13 17 17 18 19 20 22 20
15 12 10 9 5 6 5 3 3 4 7 10 12 13 16 18 20 22 23 24 24 22 21 19 16 11 4 8 7 10 11 9 9 10 11 14 18 16 17 15 17 13 17 17 13 11 21
15 14 12 10 8 8 4 3 2 4 6 9 11 13 16 20 22 24 24 26 21 18 16 16 10 13 3 7 21 23 22 22 22 11 14 9 9 17 16 15 16 17 19 21 15 10 13
14 13 12 11 10 8 5 3 1 3 6 8 11 14 17 20 22 25 26 24 17 14 16 13 10 9 5 21 24 20 19 16 14 18 14 6 8 11 16 15 20 16 20 18 22 17 17
13 15 15 13 12 7 6 3 1 3 5 7 12 14 16 18 20 25 28 16 9 2 19 5 11 4 9 19 13 15 21 22 12 14 16 15 10 21 21 23 26 22 24 22 18 7 13
17 14 12 15 9 8 6 3 0 3 6 9 12 13 14 17 17 22 21 11 10 6 7 5 5 3 7 14 20 13 23 13 16 14 15 15 24 29 19 21 22 24 26 28 21 17 14
17 16 14 11 10 8 5 2 1 2 4 7 11 11 14 16 11 18 17 14 9 6 3 5 4 4 6 21 20 11 29 21 16 15 11 19 37 12 23 18 21 24 25 20 21 16 17
16 15 14 12 11 8 5 4 2 0 2 6 9 12 14 15 8 12 7 8 6 5 2 7 6 3 13 21 4 16 19 19 16 17 16 17 19 21 24 25 23 23 20 19 18 13 16
16 16 16 15 11 9 7 4 3 2 1 4 8 11 12 11 6 5 6 5 3 2 5 6 4 6 20 17 17 4 21 18 21 22 21 33 23 11 18 34 19 25 17 15 15 15 16
16 16 14 12 11 9 8 6 4 2 1 3 6 9 9 8 6 4 4 2 1 4 0 4 8 16 21 16 13 14 23 19 17 22 25 32 33 25 24 19 24 18 12 11 10 10 14
16 14 11 11 10 9 8 7 6 4 1 2 5 6 7 6 1 3 3 1 4 2 3 5 8 13 18 15 12 16 16 16 11 13 16 26 28 28 27 25 21 25 18 10 10 10 17
17 12 12 12 8 8 8 7 6 4 2 1 3 5 5 6 5 4 3 1 1 2 4 8 9 17 6 12 12 15 15 9 13 16 15 16 21 22 19 28 26 23 25 12 19 13 14
16 13 14 11 11 11 10 6 6 5 3 2 3 5 6 6 6 5 1 1 2 2 2 7 14 8 10 13 11 10 14 4 4 6 7 11 11 22 18 25 25 26 22 28 18 13 8
15 13 15 14 10 10 9 8 7 5 5 5 8 8 5 6 5 4 1 3 1 2 4 3 5 3 14 15 12 15 8 5 10 8 4 5 14 15 8 14 22 24 23 21 14 19 20
16 11 13 15 13 11 8 9 7 7 6 7 10 5 6 6 4 2 1 3 2 1 2 2 5 9 12 12 13 17 6 15 8 24 20 10 7 8 7 10 19 17 16 19 20 16 15
17 15 11 17 14 12 9 10 8 8 7 7 5 3 7 5 2 2 3 2 3 2 1 4 6 9 11 13 16 14 8 14 21 23 25 3 6 8 14 4 5 22 21 24 14 23 16
20 19 12 12 10 13 11 12 10 9 9 8 5 5 5 1 3 4 3 3 4 3 1 2 4 3 10 14 9 8 15 22 18 24 11 11 6 12 6 6 7 4 18 19 21 15 19
20 17 16 14 10 15 12 13 12 10 10 9 4 3 4 3 3 2 2 4 2 3 6 5 8 8 12 13 10 13 20 12 23 24 16 14 6 6 8 16 2 6 2 9 19 15 16
23 23 21 17 13 15 15 12 14 12 12 8 3 3 4 5 6 6 4 3 4 2 2 6 5 5 11 7 19 10 20 24 18 11 11 14 9 12 15 19 11 2 12 10 10 20 17
26 23 23 24 17 13 16 15 15 15 14 8 5 4 4 6 7 10 5 4 5 3 3 5 9 9 14 15 15 20 23 21 13 13 16 13 8 16 18 9 12 3 4 3 12 14 16
26 26 25 28 22 15 15 17 18 18 18 6 7 7 4 7 7 6 6 6 3 2 5 10 8 14 15 16 21 32 33 34 24 21 18 9 7 11 7 14 5 4 9 2 3 3 4
29 27 26 32 20 17 17 19 22 21 19 12 9 8 5 4 6 7 4 6 7 8 11 14 15 14 12 24 34 28 23 21 16 12 12 8 10 5 10 11 3 4 10 3 5 4 5
27 26 25 25 21 17 16 19 23 22 20 16 13 9 6 4 7 8 9 10 11 12 13 15 15 9 17 18 11 10 6 4 2 1 3 9 7 5 5 8 2 5 9 9 8 6 11
28 27 27 27 22 17 19 21 21 22 21 18 13 13 6 3 6 10 8 10 9 8 7 7 8 10 6 4 4 6 4 6 3 6 3 2 6 5 6 5 3 5 15 19 4 3 6
33 29 29 28 24 20 19 20 22 23 22 20 11 16 10 7 9 6 6 4 4 4 5 8 6 5 3 3 5 4 3 7 4 7 8 7 3 4 5 3 6 14 20 18 4 8 14
26 31 32 30 28 22 18 18 25 25 24 22 13 16 14 8 11 8 10 13 12 10 7 2 6 1 3 3 3 3 3 4 5 8 8 5 5 2 4 3 4 23 11 10 13 20 10
27 31 39 28 27 23 20 19 23 24 24 21 11 16 16 12 7 9 11 18 20 15 12 5 6 5 4 4 2 3 6 4 7 4 1 3 6 6 5 6 14 17 14 17 17 6 9

GFSGBSN_850_spd_117.txt.gz
Wind_Speed
20 17 15 14 13 12 10 8 6 5 4 3 4 5 6 8 10 11 13 14 16 16 16 16 16 15 11 6 5 9 10 13 9 10 9 10 15 18 18 20 23 28 25 31 29 27 27
21 18 17 16 14 12 10 9 8 5 3 2 3 5 6 8 11 13 15 16 17 17 17 16 15 14 7 6 7 12 11 11 9 11 15 14 15 18 24 27 22 26 28 26 28 32 30
22 20 18 16 14 13 11 10 7 5 2 1 3 5 7 9 12 14 16 18 18 17 16 15 12 7 3 3 8 9 11 11 8 12 13 12 16 17 15 19 24 26 25 23 25 25 24
23 20 18 16 15 14 12 9 7 5 2 1 3 5 8 10 13 15 18 19 17 17 15 12 9 3 2 1 7 14 16 19 13 17 13 12 10 18 21 22 26 23 22 22 21 25 27
22 20 18 16 14 14 12 10 8 5 2 1 3 5 8 11 14 16 19 19 16 14 14 11 8 5 6 4 17 17 17 19 21 17 13 10 11 15 16 17 17 20 22 26 26 21 18
22 23 20 18 16 15 13 11 8 5 3 1 3 5 8 12 15 18 18 15 14 5 17 7 4 6 5 11 18 14 16 20 15 14 13 19 12 14 17 15 19 20 20 21 22 19 20
21 22 19 19 18 16 14 10 8 6 3 1 2 5 9 13 15 18 18 12 8 2 9 4 5 2 6 14 7 15 16 22 12 14 11 12 17 26 22 22 27 20 25 27 26 20 20
21 19 21 20 19 15 14 11 9 7 4 2 2 5 10 11 12 16 14 6 4 3 3 4 3 2 5 13 16 19 12 17 20 17 17 14 25 25 24 26 29 25 27 30 28 26 21
22 20 20 22 19 15 14 12 10 7 4 1 2 6 9 10 7 13 13 6 4 4 6 3 2 3 6 16 14 13 17 18 17 19 20 21 31 23 25 26 29 30 27 28 26 24 19
22 22 20 18 18 17 14 12 10 7 5 2 2 6 7 8 7 6 3 5 4 2 5 3 1 2 8 17 4 15 10 16 16 21 21 22 27 26 26 29 28 26 27 26 23 20 18
23 20 19 18 18 15 12 11 10 8 5 2 2 5 5 5 2 2 5 4 2 2 4 3 2 2 14 12 14 11 16 20 18 21 17 28 29 29 30 26 20 31 25 25 22 18 20
20 19 21 20 19 15 12 12 11 8 5 2 2 3 3 6 3 3 4 2 0 5 2 3 3 10 14 13 15 12 18 9 13 17 20 23 31 25 30 33 31 26 23 26 20 16 17
19 21 20 19 17 15 14 12 11 8 5 3 1 2 3 1 3 3 1 1 6 4 2 3 7 10 14 11 14 13 17 15 9 15 23 31 22 21 33 30 29 28 22 17 16 15 20
20 19 17 17 16 15 14 12 11 9 6 4 2 2 2 1 2 1 2 2 4 4 2 7 7 12 7 9 11 16 16 16 11 14 18 18 29 22 26 29 28 28 26 17 24 16 21
19 17 14 17 14 14 12 10 11 9 8 5 5 2 1 4 4 2 4 3 2 1 3 5 11 5 5 12 12 14 18 9 7 9 8 18 21 40 30 20 23 26 25 27 26 20 14
18 17 14 16 14 14 15 11 10 10 9 9 3 3 4 5 4 2 3 2 2 1 2 3 4 2 11 13 12 15 13 8 16 9 16 12 29 21 22 19 23 23 21 23 18 23 23
18 17 14 18 16 14 14 11 11 11 11 11 8 5 4 4 2 2 3 4 2 2 3 4 5 9 11 12 13 16 7 15 12 21 17 20 7 22 13 7 12 13 19 21 18 19 18
18 17 14 18 18 14 12 11 12 12 12 11 5 3 5 1 5 3 3 3 1 4 4 4 5 10 9 10 15 18 15 11 23 21 22 5 8 14 31 14 16 21 21 23 11 21 18
19 18 16 13 18 16 13 13 13 14 14 6 5 3 3 1 3 5 4 5 4 6 4 3 5 5 9 12 14 12 17 20 14 21 14 10 7 13 20 8 18 12 16 19 19 17 21
18 20 18 15 15 16 16 15 14 14 14 8 5 3 4 4 5 6 4 6 6 6 7 9 9 9 9 11 14 12 21 13 23 21 12 12 11 17 15 19 14 16 23 15 16 15 19
21 22 20 18 18 17 17 15 15 15 15 7 3 4 5 4 7 8 7 5 8 5 7 7 9 11 8 11 17 17 20 22 22 4 10 14 17 17 21 24 19 18 13 13 12 15 17
24 24 23 22 18 17 19 16 15 17 16 7 5 4 5 3 7 9 6 6 9 7 6 10 10 12 9 14 17 21 22 20 24 14 17 15 12 18 22 13 17 19 8 13 15 18 19
26 26 26 26 23 19 20 18 16 19 18 8 8 5 6 7 9 8 8 8 6 5 8 12 10 10 13 16 21 27 31 35 27 22 19 9 10 15 15 16 19 6 12 5 7 10 13
31 29 29 27 27 26 21 19 19 20 20 8 8 6 5 5 8 9 4 6 9 11 11 10 12 13 18 22 27 29 31 30 24 15 13 10 13 11 12 14 3 8 12 8 10 4 7
32 31 30 30 29 29 23 21 20 22 23 11 7 8 5 6 7 8 7 8 10 11 13 14 14 14 13 19 14 13 13 9 11 12 7 7 8 6 6 11 2 4 14 17 14 11 14
33 31 31 30 27 30 24 22 21 24 24 16 9 9 6 5 5 9 9 11 9 8 8 11 7 9 12 9 8 9 10 13 4 6 2 8 8 6 10 7 4 12 20 21 18 2 22
36 32 31 31 27 29 25 23 22 22 23 20 10 13 7 4 9 4 7 6 8 7 6 6 3 8 7 6 9 10 7 4 4 7 9 9 7 7 7 4 4 19 21 29 3 10 21
32 30 30 29 34 29 25 23 22 22 24 23 14 13 12 8 7 6 9 8 8 8 6 3 5 6 6 6 5 4 4 4 5 8 5 5 7 3 6 4 3 29 13 10 14 28 18
24 31 32 32 30 30 26 23 23 24 24 23 13 12 14 8 5 4 9 14 15 14 9 4 7 1 4 4 3 4 6 5 11 5 7 2 4 5 6 11 16 19 18 20 18 20 18